contact:dominique.lefevre@mio.osupytheas.fr, maurice.libes@osupytheas.fr
Project:EMSO Ligure-ouest http://www.emso-fr.org/EMSO-France
Sensor Aquadopp, line 13 Serial AQD14315 
DOI : "https://doi.org/10.17882/74513; https://doi.org/10.17882/83244" 
Title:EMSO Ligure Ouest : Data ligne ALBATROSS capteur AQUADOPP - deploiement 2021
Id,Date,Profondeur,Latitude,Longitude,X_East,Y_North,Z_Up,Amplitude_X,Amplitude_Y,Amplitude_Z,Batterie,SoundSpeed,Heading,Pitch,Roll,Pressure,Temperature,Speed,Direction
, , m, degrees North, degrees East, m.s-1, m.s-1,m.s-1, 1, 1, 1, Volt, m.s-1, degree, degree, degree, dbar, degree_C, m.s-1, degree
09,2021-09-02T21:30:00,2000.0,42.79,6.0312,0.085,-0.02,-0.016,66.0,63.0,65.0,12.9,1504.6,94.1,-1.6,1.1,1990.849,13.27,0.087,103.2
09,2021-09-02T22:00:00,2000.0,42.79,6.0312,0.071,-0.006,-0.018,66.0,62.0,67.0,12.9,1504.6,82.5,-1.4,1.1,1990.816,13.27,0.071,94.8
09,2021-09-02T22:30:00,2000.0,42.79,6.0312,0.044,-0.026,-0.013,69.0,64.0,65.0,12.8,1504.6,90.3,-1.4,1.3,1990.789,13.27,0.051,120.6
09,2021-09-02T23:00:00,2000.0,42.79,6.0312,0.072,-0.058,-0.008,67.0,65.0,66.0,12.9,1504.6,111.8,-1.0,1.2,1990.8,13.27,0.092,128.9
09,2021-09-02T23:30:00,2000.0,42.79,6.0312,0.064,-0.023,-0.013,68.0,62.0,67.0,12.9,1504.6,78.2,-1.6,1.1,1990.772,13.27,0.068,109.8
09,2021-09-03T00:00:00,2000.0,42.79,6.0312,0.068,-0.02,-0.003,66.0,65.0,65.0,12.9,1504.6,89.2,-0.7,1.1,1990.754,13.27,0.07,106.4
09,2021-09-03T00:30:00,2000.0,42.79,6.0312,0.054,-0.021,-0.005,69.0,68.0,65.0,12.9,1504.6,85.3,-0.3,1.3,1990.79,13.27,0.057,111.2
09,2021-09-03T01:00:00,2000.0,42.79,6.0312,0.081,-0.033,-0.019,65.0,62.0,65.0,12.8,1504.6,97.3,-1.5,1.1,1990.796,13.27,0.087,112.2
09,2021-09-03T01:30:00,2000.0,42.79,6.0312,0.075,-0.024,0.0,68.0,64.0,65.0,12.9,1504.6,86.5,-1.3,1.1,1990.812,13.27,0.078,107.7
09,2021-09-03T02:00:00,2000.0,42.79,6.0312,0.059,-0.028,-0.018,70.0,65.0,67.0,12.9,1504.6,81.2,-1.4,1.4,1990.809,13.27,0.065,115.4
09,2021-09-03T02:30:00,2000.0,42.79,6.0312,0.036,-0.019,0.021,68.0,65.0,67.0,12.9,1504.6,90.4,-1.2,1.0,1990.767,13.27,0.04,117.8
09,2021-09-03T03:00:00,2000.0,42.79,6.0312,0.054,-0.016,0.006,67.0,64.0,68.0,12.9,1504.6,85.6,-1.4,1.1,1990.806,13.27,0.056,106.5
09,2021-09-03T03:30:00,2000.0,42.79,6.0312,0.054,-0.014,-0.016,66.0,64.0,67.0,12.9,1504.6,94.4,-1.0,1.2,1990.857,13.27,0.055,104.5
09,2021-09-03T04:00:00,2000.0,42.79,6.0312,0.054,-0.035,-0.022,67.0,64.0,63.0,12.9,1504.6,112.8,-1.0,1.0,1990.83,13.27,0.064,123.0
09,2021-09-03T04:30:00,2000.0,42.79,6.0312,0.068,-0.022,0.006,69.0,65.0,68.0,12.9,1504.6,84.6,-0.8,1.0,1990.806,13.27,0.071,107.9
09,2021-09-03T05:00:00,2000.0,42.79,6.0312,0.052,-0.035,-0.019,68.0,64.0,67.0,12.8,1504.6,100.0,-1.5,0.8,1990.822,13.27,0.062,123.9
09,2021-09-03T05:30:00,2000.0,42.79,6.0312,0.054,-0.011,0.01,69.0,62.0,65.0,12.9,1504.6,82.6,-0.8,1.2,1990.831,13.27,0.055,101.5
09,2021-09-03T06:00:00,2000.0,42.79,6.0312,0.069,-0.001,-0.011,68.0,64.0,68.0,12.9,1504.6,73.8,-1.5,1.3,1990.825,13.27,0.069,90.8
09,2021-09-03T06:30:00,2000.0,42.79,6.0312,0.072,-0.009,-0.002,66.0,63.0,65.0,12.9,1504.6,85.9,-1.1,1.1,1990.779,13.27,0.072,97.1
09,2021-09-03T07:00:00,2000.0,42.79,6.0312,0.051,-0.018,-0.005,67.0,65.0,63.0,12.9,1504.6,73.6,-1.2,1.1,1990.787,13.27,0.054,109.4
09,2021-09-03T07:30:00,2000.0,42.79,6.0312,0.062,-0.018,0.025,67.0,65.0,66.0,12.9,1504.6,89.8,-0.8,1.1,1990.758,13.27,0.064,106.2
09,2021-09-03T08:00:00,2000.0,42.79,6.0312,0.063,-0.017,0.001,65.0,63.0,67.0,12.9,1504.6,90.3,-0.8,1.1,1990.792,13.27,0.065,105.1
09,2021-09-03T08:30:00,2000.0,42.79,6.0312,0.056,-0.004,-0.011,65.0,62.0,65.0,12.9,1504.6,76.0,-1.5,1.2,1990.764,13.27,0.056,94.1
09,2021-09-03T09:00:00,2000.0,42.79,6.0312,0.075,0.012,-0.004,66.0,64.0,63.0,12.8,1504.6,74.6,-0.5,1.2,1990.755,13.27,0.075,80.9
09,2021-09-03T09:30:00,2000.0,42.79,6.0312,0.05,-0.015,-0.011,66.0,62.0,65.0,12.9,1504.6,97.7,-1.5,1.3,1990.709,13.27,0.052,106.7
09,2021-09-03T10:00:00,2000.0,42.79,6.0312,0.069,-0.012,-0.011,65.0,61.0,65.0,12.9,1504.6,96.0,-1.3,1.3,1990.713,13.27,0.07,99.9
09,2021-09-03T10:30:00,2000.0,42.79,6.0312,0.074,-0.024,-0.005,66.0,62.0,63.0,12.9,1504.6,98.0,-1.4,1.1,1990.732,13.27,0.077,108.0
09,2021-09-03T11:00:00,2000.0,42.79,6.0312,0.063,-0.033,-0.006,66.0,62.0,65.0,12.9,1504.6,106.2,-1.4,0.9,1990.729,13.27,0.071,117.6
09,2021-09-03T11:30:00,2000.0,42.79,6.0312,0.06,-0.031,-0.013,66.0,62.0,65.0,12.9,1504.6,88.5,-1.5,1.0,1990.722,13.27,0.067,117.3
09,2021-09-03T12:00:00,2000.0,42.79,6.0312,0.061,-0.018,-0.014,67.0,62.0,67.0,12.8,1504.6,84.8,-1.6,1.1,1990.721,13.27,0.063,106.4
09,2021-09-03T12:30:00,2000.0,42.79,6.0312,0.056,-0.019,0.007,68.0,64.0,66.0,12.8,1504.6,79.5,-0.7,1.2,1990.712,13.27,0.059,108.7
09,2021-09-03T13:00:00,2000.0,42.79,6.0312,0.061,-0.026,-0.014,67.0,62.0,66.0,12.9,1504.6,82.0,-1.4,1.3,1990.725,13.27,0.066,113.1
09,2021-09-03T13:30:00,2000.0,42.79,6.0312,0.059,-0.028,-0.024,68.0,64.0,65.0,12.9,1504.6,88.9,-1.3,1.0,1990.768,13.27,0.065,115.4
09,2021-09-03T14:00:00,2000.0,42.79,6.0312,0.066,-0.049,-0.017,67.0,64.0,67.0,12.9,1504.6,100.8,-1.0,1.2,1990.763,13.27,0.082,126.6
09,2021-09-03T14:30:00,2000.0,42.79,6.0312,0.069,-0.017,0.004,67.0,64.0,65.0,12.9,1504.6,83.7,-1.2,1.2,1990.769,13.27,0.071,103.8
09,2021-09-03T15:00:00,2000.0,42.79,6.0312,0.05,-0.013,-0.008,65.0,63.0,64.0,12.9,1504.6,89.8,-0.9,1.1,1990.808,13.27,0.051,104.6
09,2021-09-03T15:30:00,2000.0,42.79,6.0312,0.049,-0.042,-0.01,65.0,64.0,66.0,12.9,1504.6,109.3,-0.8,0.9,1990.812,13.27,0.064,130.6
09,2021-09-03T16:00:00,2000.0,42.79,6.0312,0.055,-0.034,-0.013,67.0,63.0,64.0,12.9,1504.6,90.6,-1.0,1.2,1990.845,13.27,0.064,121.7
09,2021-09-03T16:30:00,2000.0,42.79,6.0312,0.072,-0.022,-0.026,67.0,65.0,63.0,12.9,1504.6,86.1,-0.8,1.2,1990.838,13.27,0.075,107.0
09,2021-09-03T17:00:00,2000.0,42.79,6.0312,0.053,-0.033,-0.018,65.0,64.0,67.0,12.9,1504.6,113.3,-1.1,0.9,1990.823,13.27,0.062,121.9
09,2021-09-03T17:30:00,2000.0,42.79,6.0312,0.043,-0.035,-0.022,68.0,64.0,65.0,12.9,1504.6,105.3,-0.7,1.0,1990.847,13.27,0.055,129.1
09,2021-09-03T18:00:00,2000.0,42.79,6.0312,0.056,-0.049,-0.011,68.0,64.0,67.0,12.9,1504.6,104.6,-1.1,1.0,1990.811,13.27,0.074,131.2
09,2021-09-03T18:30:00,2000.0,42.79,6.0312,0.055,-0.005,-0.004,68.0,68.0,66.0,12.8,1504.6,82.3,-1.1,1.0,1990.852,13.27,0.055,95.2
09,2021-09-03T19:00:00,2000.0,42.79,6.0312,0.029,-0.016,0.0,67.0,65.0,68.0,12.9,1504.6,100.5,-0.9,0.9,1990.832,13.27,0.033,118.9
09,2021-09-03T19:30:00,2000.0,42.79,6.0312,0.03,-0.012,0.005,67.0,66.0,67.0,12.9,1504.6,83.1,-1.0,1.1,1990.807,13.27,0.032,111.8
09,2021-09-03T20:00:00,2000.0,42.79,6.0312,0.057,-0.015,0.0,68.0,66.0,67.0,12.9,1504.6,94.1,-0.8,1.1,1990.804,13.27,0.058,104.7
09,2021-09-03T20:30:00,2000.0,42.79,6.0312,0.053,0.007,0.006,66.0,64.0,66.0,12.9,1504.6,70.6,-1.3,1.2,1990.787,13.27,0.053,82.5
09,2021-09-03T21:00:00,2000.0,42.79,6.0312,0.039,0.01,-0.007,66.0,64.0,68.0,12.9,1504.6,73.8,-0.9,1.1,1990.742,13.27,0.04,75.6
